Simultaneous Nadir Overpasses (SNOs) Predictions

Prediction of SNOs between AQUA and NPP Satellite Orbit:

Table of predicted SNOs for the next 14.0 days since TLE Epoch: 9/17/2016
Index Date (AQUA) Time (AQUA) Lat,Lon (AQUA) SZA (AQUA ) Date (NPP) Time (NPP) Lat,Lon (NPP) SZA (NPP ) Distance(km) Time Diff (sec)
1 09/18/2016 13:15:56 -73.91, 34.62 82.36 09/18/2016 13:15:00 -73.92, 34.67 82.32 1.63 56
2 09/18/2016 14:04:53 75.37,-154.11 96.09 09/18/2016 14:05:14 75.38,-154.05 96.05 2.12 21
3 09/21/2016 05:32:18 -74.22, 151.20 81.72 09/21/2016 05:31:52 -74.22, 151.16 81.69 1.12 26
4 09/21/2016 06:21:15 75.66, -37.40 96.73 09/21/2016 06:22:06 75.66, -37.41 96.68 0.36 51
5 09/23/2016 20:59:38 73.13, 97.10 100.37 09/23/2016 20:58:25 73.13, 97.06 100.45 1.41 73
6 09/23/2016 21:48:27 -75.12, -90.67 81.73 09/23/2016 21:48:30 -75.13, -90.59 81.76 2.53 3
7 09/23/2016 22:32:28 79.17, 177.06 80.50 09/23/2016 22:33:40 78.51, 174.36 80.08 94.53 72
8 09/26/2016 13:15:45 74.21,-144.70 100.20 09/26/2016 13:15:01 74.22,-144.63 100.22 2.34 44
9 09/26/2016 14:04:47 -75.50, 26.25 81.18 09/26/2016 14:05:20 -75.50, 26.29 81.22 1.22 33
10 09/29/2016 05:32:03 74.69, -27.65 100.66 09/29/2016 05:31:49 74.69, -27.61 100.66 1.27 14




NCC Satellite Simultaneous Nadir Overpasses (SNOs) Prediction Service
